Time,TemperatureF,DewpointF,PressureIn,WindDirection,WindDirectionDegrees,WindSpeedMPH,WindSpeedGustMPH,Humidity,HourlyPrecipIn,Conditions,Clouds,dailyrainin,SolarRadiationWatts/m^2,SoftwareType,DateUTC
2013-05-31 00:13:00,54.4,46.0,30.01,East,96,0.0,8.0,73,0.00,,,0.00,0,weatherlink.com 1.10,2013-05-31 08:13:00,
2013-05-31 00:28:00,53.9,46.0,30.02,ESE,122,3.0,6.0,74,0.00,,,0.00,0,weatherlink.com 1.10,2013-05-31 08:28:00,
2013-05-31 00:43:00,53.3,46.0,30.01,ESE,120,5.0,7.0,76,0.00,,,0.00,0,weatherlink.com 1.10,2013-05-31 08:43:00,
2013-05-31 00:58:00,52.9,46.0,30.02,SSE,150,4.0,9.0,77,0.00,,,0.00,0,weatherlink.com 1.10,2013-05-31 08:58:00,
2013-05-31 01:13:00,52.6,46.0,30.02,SSE,157,5.0,10.0,78,0.00,,,0.00,0,weatherlink.com 1.10,2013-05-31 09:13:00,
2013-05-31 01:28:00,52.6,46.0,30.03,SSE,159,7.0,8.0,78,0.00,,,0.00,0,weatherlink.com 1.10,2013-05-31 09:28:00,
2013-05-31 01:44:00,52.5,46.0,30.03,SSE,150,1.0,11.0,78,0.00,,,0.00,0,weatherlink.com 1.10,2013-05-31 09:44:00,
2013-05-31 01:59:00,52.3,46.0,30.04,SSE,158,5.0,8.0,78,0.00,,,0.00,0,weatherlink.com 1.10,2013-05-31 09:59:00,
2013-05-31 02:14:00,52.2,46.0,30.04,SE,141,1.0,8.0,78,0.00,,,0.00,0,weatherlink.com 1.10,2013-05-31 10:14:00,
2013-05-31 02:29:00,52.2,45.0,30.04,East,96,1.0,11.0,77,0.00,,,0.00,0,weatherlink.com 1.10,2013-05-31 10:29:00,
2013-05-31 02:44:00,51.9,45.0,30.04,ESE,107,6.0,9.0,78,0.00,,,0.00,0,weatherlink.com 1.10,2013-05-31 10:44:00,
2013-05-31 02:59:00,51.7,45.0,30.04,ESE,112,0.0,4.0,78,0.00,,,0.00,0,weatherlink.com 1.10,2013-05-31 10:59:00,
2013-05-31 03:14:00,51.2,45.0,30.05,ESE,111,0.0,10.0,79,0.00,,,0.00,0,weatherlink.com 1.10,2013-05-31 11:14:00,
2013-05-31 03:29:00,50.9,45.0,30.05,ESE,110,1.0,7.0,80,0.00,,,0.00,0,weatherlink.com 1.10,2013-05-31 11:29:00,
2013-05-31 03:44:00,50.9,45.0,30.05,ENE,57,0.0,7.0,79,0.00,,,0.00,0,weatherlink.com 1.10,2013-05-31 11:44:00,
2013-05-31 03:59:00,50.6,45.0,30.06,ESE,109,1.0,5.0,80,0.00,,,0.00,0,weatherlink.com 1.10,2013-05-31 11:59:00,
2013-05-31 04:14:00,50.3,45.0,30.06,East,98,1.0,7.0,81,0.00,,,0.00,0,weatherlink.com 1.10,2013-05-31 12:14:00,
2013-05-31 04:29:00,50.1,45.0,30.06,ESE,103,0.0,6.0,82,0.00,,,0.00,5,weatherlink.com 1.10,2013-05-31 12:29:00,
2013-05-31 04:44:00,49.9,44.0,30.06,ESE,104,0.0,5.0,81,0.00,,,0.00,7,weatherlink.com 1.10,2013-05-31 12:44:00,
2013-05-31 04:59:00,49.7,44.0,30.06,ESE,104,0.0,4.0,82,0.00,,,0.00,14,weatherlink.com 1.10,2013-05-31 12:59:00,
2013-05-31 05:14:00,49.6,44.0,30.06,ESE,104,0.0,2.0,82,0.00,,,0.00,21,weatherlink.com 1.10,2013-05-31 13:14:00,
2013-05-31 05:29:00,49.4,44.0,30.07,ESE,104,2.0,5.0,83,0.00,,,0.00,25,weatherlink.com 1.10,2013-05-31 13:29:00,
2013-05-31 05:44:00,49.3,44.0,30.07,ESE,104,0.0,2.0,83,0.00,,,0.00,28,weatherlink.com 1.10,2013-05-31 13:44:00,
2013-05-31 05:59:00,49.4,44.0,30.07,ESE,104,0.0,4.0,83,0.00,,,0.00,70,weatherlink.com 1.10,2013-05-31 13:59:00,
2013-05-31 06:14:00,49.4,44.0,30.07,ESE,104,0.0,6.0,83,0.00,,,0.00,97,weatherlink.com 1.10,2013-05-31 14:14:00,
2013-05-31 06:29:00,49.7,45.0,30.07,ESE,104,2.0,5.0,83,0.00,,,0.00,125,weatherlink.com 1.10,2013-05-31 14:29:00,
2013-05-31 06:44:00,50.6,45.0,30.07,SSW,210,2.0,8.0,82,0.00,,,0.00,156,weatherlink.com 1.10,2013-05-31 14:44:00,
2013-05-31 06:59:00,51.2,45.0,30.07,SSE,155,2.0,8.0,79,0.00,,,0.00,186,weatherlink.com 1.10,2013-05-31 14:59:00,
2013-05-31 07:14:00,51.0,45.0,30.08,SSW,196,6.0,7.0,79,0.00,,,0.00,221,weatherlink.com 1.10,2013-05-31 15:14:00,
2013-05-31 07:29:00,50.9,45.0,30.08,SSW,205,4.0,12.0,79,0.00,,,0.00,156,weatherlink.com 1.10,2013-05-31 15:29:00,
2013-05-31 07:44:00,47.6,44.0,30.09,WSW,248,6.0,14.0,86,0.00,,,0.00,287,weatherlink.com 1.10,2013-05-31 15:44:00,
2013-05-31 07:59:00,47.3,44.0,30.09,WSW,242,10.0,11.0,88,0.00,,,0.00,295,weatherlink.com 1.10,2013-05-31 15:59:00,
2013-05-31 08:14:00,46.7,44.0,30.09,SW,219,7.0,12.0,90,0.00,,,0.00,223,weatherlink.com 1.10,2013-05-31 16:14:00,
2013-05-31 08:29:00,45.8,43.0,30.10,SSW,200,6.0,13.0,90,0.00,,,0.00,383,weatherlink.com 1.10,2013-05-31 16:29:00,
2013-05-31 08:44:00,46.7,44.0,30.10,SW,232,7.0,11.0,89,0.00,,,0.00,116,weatherlink.com 1.10,2013-05-31 16:44:00,
2013-05-31 08:59:00,46.1,44.0,30.11,SW,236,7.0,12.0,91,0.00,,,0.00,239,weatherlink.com 1.10,2013-05-31 16:59:00,
2013-05-31 09:14:00,45.7,43.0,30.11,WSW,256,8.0,12.0,91,0.00,,,0.00,265,weatherlink.com 1.10,2013-05-31 17:14:00,
2013-05-31 09:29:00,46.4,44.0,30.11,WSW,242,10.0,12.0,90,0.00,,,0.00,225,weatherlink.com 1.10,2013-05-31 17:29:00,
2013-05-31 09:44:00,46.1,43.0,30.12,SW,226,14.0,14.0,90,0.00,,,0.00,200,weatherlink.com 1.10,2013-05-31 17:44:00,
2013-05-31 09:59:00,46.3,44.0,30.12,SSW,207,9.0,13.0,91,0.00,,,0.00,642,weatherlink.com 1.10,2013-05-31 17:59:00,
2013-05-31 10:14:00,47.0,44.0,30.11,SW,232,10.0,13.0,90,0.00,,,0.00,265,weatherlink.com 1.10,2013-05-31 18:14:00,
2013-05-31 10:29:00,47.1,44.0,30.11,SW,215,7.0,14.0,89,0.00,,,0.00,629,weatherlink.com 1.10,2013-05-31 18:29:00,
2013-05-31 10:44:00,47.5,45.0,30.11,SW,234,5.0,13.0,89,0.00,,,0.00,691,weatherlink.com 1.10,2013-05-31 18:44:00,
2013-05-31 11:00:00,47.5,44.0,30.12,SW,232,12.0,14.0,88,0.00,,,0.00,420,weatherlink.com 1.10,2013-05-31 19:00:00,
2013-05-31 11:15:00,48.4,44.0,30.11,SW,231,8.0,13.0,86,0.00,,,0.00,494,weatherlink.com 1.10,2013-05-31 19:15:00,
2013-05-31 11:30:00,48.8,45.0,30.11,SW,234,9.0,10.0,86,0.00,,,0.00,768,weatherlink.com 1.10,2013-05-31 19:30:00,
2013-05-31 11:45:00,49.3,45.0,30.11,SW,220,7.0,15.0,85,0.00,,,0.00,234,weatherlink.com 1.10,2013-05-31 19:45:00,
2013-05-31 12:00:00,49.2,45.0,30.11,WSW,237,7.0,13.0,85,0.00,,,0.00,234,weatherlink.com 1.10,2013-05-31 20:00:00,
2013-05-31 12:15:00,49.7,45.0,30.11,SSW,193,11.0,14.0,84,0.00,,,0.00,476,weatherlink.com 1.10,2013-05-31 20:15:00,
2013-05-31 12:30:00,50.0,45.0,30.11,SSW,204,5.0,13.0,84,0.00,,,0.00,621,weatherlink.com 1.10,2013-05-31 20:30:00,
2013-05-31 12:45:00,51.4,46.0,30.11,WSW,243,9.0,11.0,81,0.00,,,0.00,230,weatherlink.com 1.10,2013-05-31 20:45:00,
2013-05-31 13:00:00,51.8,46.0,30.11,WSW,250,8.0,9.0,80,0.00,,,0.00,62,weatherlink.com 1.10,2013-05-31 21:00:00,
2013-05-31 13:15:00,52.7,46.0,30.11,WSW,247,7.0,13.0,77,0.00,,,0.00,60,weatherlink.com 1.10,2013-05-31 21:15:00,
2013-05-31 13:30:00,51.8,46.0,30.10,SW,236,13.0,16.0,79,0.00,,,0.00,60,weatherlink.com 1.10,2013-05-31 21:30:00,
2013-05-31 13:45:00,51.5,46.0,30.10,WSW,242,14.0,15.0,80,0.00,,,0.00,62,weatherlink.com 1.10,2013-05-31 21:45:00,
2013-05-31 14:00:00,51.8,46.0,30.10,WSW,245,13.0,14.0,80,0.00,,,0.00,62,weatherlink.com 1.10,2013-05-31 22:00:00,
2013-05-31 14:15:00,52.7,46.0,30.10,SSW,209,5.0,16.0,79,0.00,,,0.00,67,weatherlink.com 1.10,2013-05-31 22:15:00,
2013-05-31 14:30:00,51.5,46.0,30.10,SW,228,11.0,15.0,81,0.00,,,0.00,69,weatherlink.com 1.10,2013-05-31 22:30:00,
2013-05-31 14:45:00,53.2,47.0,30.10,SW,223,7.0,13.0,78,0.00,,,0.00,77,weatherlink.com 1.10,2013-05-31 22:45:00,
2013-05-31 15:00:00,53.3,46.0,30.10,SW,225,11.0,15.0,77,0.00,,,0.00,91,weatherlink.com 1.10,2013-05-31 23:00:00,
2013-05-31 15:15:00,53.6,47.0,30.09,SSW,213,4.0,15.0,78,0.00,,,0.00,97,weatherlink.com 1.10,2013-05-31 23:15:00,
2013-05-31 15:30:00,53.5,47.0,30.09,WSW,238,8.0,12.0,78,0.00,,,0.00,95,weatherlink.com 1.10,2013-05-31 23:30:00,
2013-05-31 15:45:00,54.9,47.0,30.09,SSW,205,9.0,14.0,74,0.00,,,0.00,454,weatherlink.com 1.10,2013-05-31 23:45:00,
2013-05-31 16:00:00,56.4,48.0,30.09,WSW,255,1.0,13.0,73,0.00,,,0.00,301,weatherlink.com 1.10,2013-06-01 00:00:00,
2013-05-31 16:15:00,53.0,46.0,30.09,WSW,240,8.0,14.0,78,0.00,,,0.00,137,weatherlink.com 1.10,2013-06-01 00:15:00,
2013-05-31 16:30:00,52.9,47.0,30.09,SW,226,8.0,13.0,79,0.00,,,0.00,109,weatherlink.com 1.10,2013-06-01 00:30:00,
2013-05-31 16:45:00,55.1,48.0,30.09,SSW,204,5.0,12.0,76,0.00,,,0.00,606,weatherlink.com 1.10,2013-06-01 00:45:00,
2013-05-31 17:00:00,55.6,47.0,30.09,WSW,239,9.0,15.0,74,0.00,,,0.00,587,weatherlink.com 1.10,2013-06-01 01:00:00,
2013-05-31 17:15:00,55.9,48.0,30.09,South,190,9.0,14.0,75,0.00,,,0.00,575,weatherlink.com 1.10,2013-06-01 01:15:00,
2013-05-31 17:30:00,57.7,48.0,30.09,SSW,212,1.0,15.0,71,0.00,,,0.00,225,weatherlink.com 1.10,2013-06-01 01:30:00,
2013-05-31 17:45:00,58.7,49.0,30.09,SSW,193,7.0,12.0,69,0.00,,,0.00,536,weatherlink.com 1.10,2013-06-01 01:45:00,
2013-05-31 18:00:00,59.2,48.0,30.09,ESE,114,2.0,8.0,66,0.00,,,0.00,371,weatherlink.com 1.10,2013-06-01 02:00:00,
2013-05-31 18:15:00,58.5,48.0,30.09,SSE,167,9.0,10.0,68,0.00,,,0.00,478,weatherlink.com 1.10,2013-06-01 02:15:00,
2013-05-31 18:30:00,58.3,48.0,30.09,ESE,103,2.0,11.0,68,0.00,,,0.00,452,weatherlink.com 1.10,2013-06-01 02:30:00,
2013-05-31 18:45:00,58.0,48.0,30.09,South,173,7.0,13.0,69,0.00,,,0.00,322,weatherlink.com 1.10,2013-06-01 02:45:00,
2013-05-31 19:00:00,57.6,48.0,30.09,ESE,114,0.0,18.0,71,0.00,,,0.00,399,weatherlink.com 1.10,2013-06-01 03:00:00,
2013-05-31 19:15:00,58.1,49.0,30.09,SE,134,2.0,12.0,72,0.00,,,0.00,387,weatherlink.com 1.10,2013-06-01 03:15:00,
2013-05-31 19:30:00,57.7,49.0,30.10,South,169,7.0,19.0,73,0.00,,,0.00,223,weatherlink.com 1.10,2013-06-01 03:30:00,
2013-05-31 19:45:00,57.9,49.0,30.10,ESE,105,2.0,21.0,72,0.00,,,0.00,179,weatherlink.com 1.10,2013-06-01 03:45:00,
2013-05-31 20:00:00,58.2,49.0,30.10,SE,128,0.0,14.0,71,0.00,,,0.00,165,weatherlink.com 1.10,2013-06-01 04:00:00,
2013-05-31 20:15:00,57.3,49.0,30.10,South,188,8.0,16.0,73,0.00,,,0.00,174,weatherlink.com 1.10,2013-06-01 04:15:00,
2013-05-31 20:30:00,56.9,49.0,30.10,SE,124,1.0,15.0,74,0.00,,,0.00,128,weatherlink.com 1.10,2013-06-01 04:30:00,
2013-05-31 20:45:00,57.0,48.0,30.10,South,174,6.0,16.0,73,0.00,,,0.00,104,weatherlink.com 1.10,2013-06-01 04:45:00,
2013-05-31 21:00:00,56.6,48.0,30.10,SE,141,2.0,13.0,74,0.00,,,0.00,84,weatherlink.com 1.10,2013-06-01 05:00:00,
2013-05-31 21:15:00,55.0,48.0,30.10,SSW,197,4.0,11.0,76,0.00,,,0.00,67,weatherlink.com 1.10,2013-06-01 05:15:00,
2013-05-31 21:30:00,54.1,47.0,30.11,SSW,212,7.0,12.0,78,0.00,,,0.00,56,weatherlink.com 1.10,2013-06-01 05:30:00,
2013-05-31 21:45:00,52.9,47.0,30.11,SSW,206,7.0,12.0,80,0.00,,,0.00,53,weatherlink.com 1.10,2013-06-01 05:45:00,
2013-05-31 22:00:00,52.1,46.0,30.12,SSW,213,9.0,14.0,80,0.00,,,0.00,42,weatherlink.com 1.10,2013-06-01 06:00:00,
2013-05-31 22:15:00,50.9,46.0,30.12,SW,217,7.0,11.0,82,0.00,,,0.00,30,weatherlink.com 1.10,2013-06-01 06:15:00,
2013-05-31 22:30:00,50.9,46.0,30.12,SSW,208,4.0,11.0,83,0.00,,,0.00,23,weatherlink.com 1.10,2013-06-01 06:30:00,
2013-05-31 22:45:00,51.8,47.0,30.13,SSW,200,5.0,11.0,82,0.00,,,0.00,19,weatherlink.com 1.10,2013-06-01 06:45:00,
2013-05-31 23:00:00,52.9,47.0,30.14,South,183,12.0,16.0,79,0.00,,,0.00,11,weatherlink.com 1.10,2013-06-01 07:00:00,
2013-05-31 23:15:00,52.3,46.0,30.14,SSW,198,10.0,11.0,79,0.00,,,0.00,0,weatherlink.com 1.10,2013-06-01 07:15:00,
2013-05-31 23:30:00,50.7,46.0,30.15,SSW,192,4.0,10.0,83,0.00,,,0.00,0,weatherlink.com 1.10,2013-06-01 07:30:00,
2013-05-31 23:45:00,50.9,46.0,30.16,South,169,0.0,10.0,82,0.00,,,0.00,0,weatherlink.com 1.10,2013-06-01 07:45:00,